Home > Weather > East Hants > Past weeks

Flag for Canada Weather for the Past 2 Weeks in East Hants, Nova Scotia, Canada

Now
43 °F

Low clouds.


Feels Like: 37 °F
Forecast: 37 / 55 °F
Wind: 10 mph from North

Location: Halifax International Airport

Current Time: May 3, 2016 at 11:47:31 PM

Latest Report: May 3, 2016 at 11:00 PM


Visibility: 15 mi

Pressure: 29.83 "Hg

Humidity: 93%

Dew Point: 41 °F

Location of East HantsLocation

Historic Weather in East Hants — Graph

°F

East Hants Temperature Yesterday

Maximum temperature yesterday: 54 °F (at 2:00 PM)
Minimum temperature yesterday: 37 °F (at 5:00 AM)
Average temperature yesterday: 44 °F

High & Low Weather Summary for the Past Weeks

 TemperatureHumidityPressure
High68 °F (Apr 22, 4:00 PM)100% (Apr 20, 5:00 AM)30.29 "Hg (Apr 20, 5:00 AM)
Low27 °F (Apr 19, 2:00 AM)19% (Apr 30, 4:00 PM)29.67 "Hg (Apr 21, 5:00 PM)
Average42 °F62%29.94 "Hg
* Reported Apr 18 10:00 PM — May 3 10:53 PM, East Hants, Weather by CustomWeather, © 2016

Note: Actual official high and low records may vary slightly from our data, if they occured in-between our weather recording intervals... More about our weather records

Advertising

East Hants Weather History for the Previous 24 Hours

Scroll right to see more
 ConditionsComfort  
Time TempWeatherWind HumidityBarometerVisibility
10:53 PM
Tue, May 3
43 °FLow clouds.8 mph93%29.83 "Hg15 mi
10:00 PM45 °FMostly cloudy.9 mph87%29.83 "Hg15 mi
9:00 PM45 °FOvercast.9 mph87%29.83 "Hg15 mi
8:00 PM46 °FOvercast.9 mph87%29.83 "Hg15 mi
7:00 PM48 °FOvercast.12 mph76%29.82 "Hg15 mi
6:00 PM48 °FOvercast.12 mph82%29.82 "Hg14 mi
5:00 PM48 °FOvercast.13 mph82%29.81 "Hg15 mi
4:00 PM50 °FOvercast.16 mph82%29.78 "Hg15 mi
3:00 PM50 °FOvercast.14 mph82%29.77 "Hg15 mi
2:00 PM50 °FOvercast.15 mph82%29.77 "Hg15 mi
1:00 PM50 °FOvercast.13 mph88%29.77 "Hg15 mi
12:00 PM50 °FOvercast.13 mph94%29.76 "Hg15 mi
11:00 AM50 °FPartly sunny.9 mph94%29.74 "Hg15 mi
10:00 AM46 °FFog.13 mph100%29.72 "Hg3 mi
9:47 AM46 °FFog.10 mph100%29.73 "Hg3 mi
9:00 AM45 °FDrizzle. Fog.7 mph100%29.72 "Hg2 mi
8:00 AM45 °FDrizzle. Fog.3 mph100%29.70 "Hg1 mi
7:00 AM45 °FDrizzle. Fog.8 mph100%29.70 "Hg1 mi
6:00 AM45 °FDrizzle. Fog.16 mph100%29.70 "Hg1 mi
5:00 AM46 °FDrizzle. Fog.18 mph93%29.72 "Hg1 mi
4:00 AM46 °FDrizzle. Fog.18 mph100%29.74 "Hg1 mi
3:00 AM46 °FLight rain. Fog.16 mph100%29.77 "Hg2 mi
2:00 AM43 °FLight rain. Fog.15 mph100%29.83 "Hg3 mi
1:00 AM43 °FLight rain. Fog.14 mph93%29.90 "Hg5 mi
12:00 AM41 °FLight rain. Fog.17 mph100%29.94 "Hg6 mi
11:00 PM
Mon, May 2
43 °FLight rain. Fog.16 mph93%29.99 "Hg6 mi
Weather by CustomWeather, © 2016

See weather overviewHow to use our weather pages